Location: Hepcat Sky Observatory
(29.9800°N, 95.6500°W)
Time: 13:58:32
(UTC-05:00)

Daily predictions for brighter satellites

Satellite Brightness Start Highest point End
(mag) Time Altitude Azimuth Time Altitude Azimuth Time Altitude Azimuth
GPS 2-04 Rocket1 3.4 20:53:37 10° WNW 20:57:58 58° NNE 21:02:14 10° E
Delta 142 4.1 20:55:03 10° W 20:59:22 55° S 21:04:44 10° ESE
Tiangong 1 2.5 21:01:22 10° S 21:03:38 19° SE 21:05:54 10° E
ERS-1 Rocket 3.9 20:59:47 10° SE 21:04:11 32° ENE 21:08:37 10° N
Meteor 2-1 Rocket 4.2 21:00:04 10° N 21:05:41 81° E 21:11:12 10° S
H-2A R/B 2.7 21:04:47 10° SSE 21:08:39 73° ENE 21:12:28 10° N
CZ-2D R/B 3.4 21:06:13 10° S 21:10:06 81° WSW 21:13:59 10° NNW
Cosmos 1777 Rocket 4.3 21:07:36 10° S 21:12:38 47° ESE 21:17:39 10° NNE
Cosmos 1378 3.7 21:08:59 10° SSW 21:12:41 61° W 21:16:24 10° N
H-2A R/B 1.5 21:13:13 10° SW 21:17:31 31° S 21:18:43 18° ESE
Cosmos 2360 4.2 21:12:04 10° NNW 21:17:48 86° ENE 21:23:31 10° SSE
Meteor 1-21 Rocket 4.3 21:13:28 10° S 21:18:52 55° E 21:24:15 10° NNE
AVUM R/B 3.0 21:17:01 10° S 21:19:00 31° ESE 21:21:06 10° NE
NOSS 3-1 (C) 4.4 21:17:59 10° SSE 21:22:20 23° ESE 21:26:54 10° ENE
Cosmos 1553 Rocket 4.2 21:20:35 10° N 21:26:51 57° E 21:32:53 11° SSE
Cosmos 1417 Rocket 4.5 21:20:54 10° N 21:27:09 79° E 21:33:26 10° S
YAOGAN 11 4.0 21:28:57 10° SSE 21:33:14 89° WSW 21:37:35 10° NNW
CZ-2C R/B 1.3 21:34:46 23° NE 21:34:46 23° NE 21:35:45 10° N
Cosmos 1151 Rocket 4.2 21:33:39 10° NNE 21:37:12 25° E 21:38:39 21° ESE
ASTRO E2 4.2 21:34:18 10° W 21:37:35 24° SSW 21:39:30 17° SSE
Delta 128 3.9 21:35:10 10° W 21:39:43 51° SSW 21:42:10 24° SE
SWIFT 4.3 21:42:40 10° SW 21:44:58 14° SSW 21:45:47 14° S
Cosmos 2058 4.3 21:46:02 20° E 21:46:08 20° E 21:49:09 10° NE
Cosmos 1538 Rocket 4.0 21:42:08 10° NNW 21:47:30 76° ENE 21:51:06 21° SSE
H-2A R/B 2.1 21:48:07 22° SSE 21:51:01 74° ENE 21:55:32 10° N
Cosmos 2219 3.5 21:46:19 10° S 21:51:45 46° ESE 21:57:13 10° NNE
Meteor 2-20 4.4 21:47:19 10° S 21:53:29 86° E 21:59:38 10° N
Cosmos 1441 Rocket 4.2 21:51:07 10° SSW 21:54:46 46° W 21:58:25 10° N
CZ-4B R/B 4.0 21:51:38 10° NNE 21:56:35 41° E 21:58:43 28° SSE
CZ-4 SHROUD 4.0 21:57:27 34° ENE 21:57:30 34° ENE 22:00:22 10° N
Cosmos 1328 Rocket 4.0 21:56:15 10° NNW 22:00:39 62° W 22:03:54 17° S
GPS 2-12 Rocket1 4.3 21:58:55 10° SW 22:02:22 23° S 22:02:22 23° S
Cosmos 2322 4.4 22:00:57 10° N 22:06:15 38° ENE 22:08:13 30° ESE
OAO 2 Rocket 3.4 22:02:52 10° SW 22:08:06 62° SSE 22:11:37 21° E
Cosmos 2322 Rocket 2.6 22:04:57 10° NNW 22:10:27 58° WSW 22:13:59 22° S
Cosmos 773 Rocket 3.9 22:05:38 10° N 22:10:50 70° ENE 22:12:51 37° SSE
UNK 4.5 22:06:11 10° NNE 22:12:25 81° ESE 22:18:16 12° S
CZ-4 R/B 4.2 22:11:23 10° NNE 22:16:03 43° E 22:16:33 42° ESE
SL-16 R/B 2.8 22:15:04 10° NNW 22:20:31 50° WSW 22:23:46 23° S
ATLAS CENTAUR R/B 3.3 22:17:11 10° WNW 22:20:35 23° WSW 22:22:28 17° SSW
Cosmos 1908 3.3 22:16:47 10° N 22:20:40 74° W 22:21:34 50° SSW
Cosmos 2360 Rocket 2.4 22:15:13 10° N 22:20:46 54° ENE 22:22:23 41° ESE
NOSS 3-1 (A) 3.3 22:21:17 23° S 22:24:50 60° ESE 22:30:54 10° NE
Cosmos 1939 Rocket 4.0 22:23:26 25° SSW 22:25:11 38° W 22:28:52 10° NNW
Meteor 1-11 4.3 22:25:08 41° SSE 22:26:54 59° E 22:32:32 10° NNE
MetOp-B 4.0 22:26:49 44° SSE 22:28:36 82° ENE 22:33:58 10° N
Cosmos 1674 4.4 22:28:19 14° SW 22:31:01 31° W 22:34:28 10° NNW
Delta 2 Rocket 4.4 22:31:11 10° WNW 22:34:22 32° N 22:35:08 29° NNE
SPOT 5 3.1 22:34:33 42° SSW 22:35:47 58° W 22:40:23 10° NNW
Envisat 3.8 22:33:42 26° SSW 22:36:10 46° W 22:41:03 10° NNW
GPS 2-04 Rocket1 3.6 22:33:48 10° W 22:37:28 40° SW 22:37:28 40° SW
Tiangong 1 2.8 22:37:09 10° W 22:39:15 31° WNW 22:39:15 31° WNW
SL-08 RB Rocket 4.2 22:40:45 45° ENE 22:40:45 45° ENE 22:44:44 10° N
Cosmos 2227 Rocket 3.6 22:42:28 22° ENE 22:42:28 22° ENE 22:45:12 10° NE
ATLAS 2AS CENTAUR R/B 3.6 22:48:10 33° E 22:48:10 33° E 22:53:59 10° NE
Cosmos 1300 3.6 22:43:22 10° N 22:46:04 40° NNE 22:46:04 40° NNE
Cosmos 2298 Rocket 4.0 22:48:23 50° SSW 22:49:51 83° WNW 22:55:11 10° NNE
Cosmos 2112 Rocket 3.8 22:47:31 10° NNW 22:52:47 88° ENE 22:53:12 77° SSE
H-2A R/B 3.3 22:49:28 10° WSW 22:53:24 70° SSE 23:16:38 10° E
Cosmos 2333 Rocket 4.0 22:51:05 10° NNE 22:54:49 17° ENE 22:55:11 17° ENE
DELTA 2 R/B (1) 4.2 22:50:23 10° NW 22:55:46 50° NNE 22:57:08 41° ENE
Sich 1 3.2 22:56:58 70° N 22:56:58 70° N 23:00:55 10° N
YAOGAN 6 3.9 22:57:57 39° WNW 22:57:57 39° WNW 23:00:48 10° NNW
Cosmos 1633 Rocket 3.3 22:58:07 64° N 22:58:07 64° N 23:01:52 10° N
Cosmos 1937 Rocket 3.6 22:58:30 61° ENE 22:58:30 61° ENE 23:03:04 10° NNE
COSMOS 2428 2.7 23:01:10 10° NNW 23:06:47 64° ENE 23:06:47 64° ENE
Cosmos 2297 Rocket 3.7 23:10:25 23° ENE 23:10:25 23° ENE 23:12:52 10° NE
Cosmos 2315 Rocket 4.4 23:02:40 10° NNW 23:08:42 56° W 23:10:26 42° SW
H-2A R/B 2.4 23:10:13 54° NE 23:10:13 54° NE 23:15:03 10° N
Landsat 7 4.2 23:18:17 60° N 23:18:17 60° N 23:22:10 10° NNW
ARGOS 3.5 23:18:34 55° WSW 23:18:50 55° W 23:24:08 10° NNW
Cosmos 1241 Rocket 4.4 23:20:29 72° ENE 23:20:29 72° ENE 23:26:13 10° NNE
SPOT 1/Viking Rocket 4.4 23:21:45 39° WSW 23:22:02 39° W 23:26:50 10° NNW
Cosmos 2219 Rocket 3.0 23:17:50 10° N 23:22:26 39° NE 23:22:26 39° NE
Cosmos 2237 4.3 23:22:42 10° NNW 23:28:02 72° WNW 23:28:02 72° WNW
Terra 2.7 23:34:39 47° N 23:34:39 47° N 23:38:02 10° NNW
Nadezhda 1 Rocket 4.0 23:31:46 10° N 23:37:15 71° NNE 23:37:15 71° NNE
Cosmos 1745 Rocket 4.3 23:42:06 54° WSW 23:42:39 56° W 23:48:44 10° N
Cosmos 2082 4.1 23:49:09 60° NNW 23:49:09 60° NNW 23:54:02 10° NNE
Cosmos 1709 Rocket 4.4 23:52:26 54° NE 23:52:26 54° NE 23:57:11 10° N
Cosmos 2237 Rocket 3.1 23:46:16 10° N 23:50:31 41° NNE 23:50:31 41° NNE
SeaSat 1 4.3 23:55:21 23° NE 23:55:21 23° NE 23:58:09 10° N
